This is the latest recevied weather packets stored in our database for station/object IW5CTE-13. If no packets are shown the sender has not sent any weather packets the latest 10 day(s).
| Time | Temp. | Humidity | Pressure | Rain* | Wind** | Luminosity | Snow |
|---|---|---|---|---|---|---|---|
| 1777723651 | 23.33° C | 33% | 1024 hPa | - | - | - | - |
| 1777723052 | 23.89° C | 32% | 1024 hPa | - | - | - | - |
| 1777722451 | 23.89° C | 32% | 1024.1 hPa | - | - | - | - |
| 1777721852 | 24.44° C | 30% | 1024.2 hPa | - | - | - | - |
| 1777721251 | 25° C | 28% | 1024.3 hPa | - | - | - | - |
| 1777720651 | 25° C | 28% | 1024.4 hPa | - | - | - | - |
| 1777720051 | 26.11° C | 28% | 1024.5 hPa | - | - | - | - |
| 1777719452 | 27.22° C | 26% | 1024.7 hPa | - | - | - | - |
| 1777718851 | 26.67° C | 26% | 1024.8 hPa | - | - | - | - |
| 1777718251 | 26.67° C | 25% | 1025 hPa | - | - | - | - |
| 1777717654 | 26.11° C | 25% | 1025 hPa | - | - | - | - |
| 1777717052 | 26.67° C | 24% | 1025.1 hPa | - | - | - | - |
| 1777716451 | 26.11° C | 25% | 1025.1 hPa | - | - | - | - |
| 1777715851 | 26.11° C | 24% | 1025.2 hPa | - | - | - | - |
| 1777715253 | 25° C | 25% | 1025.5 hPa | - | - | - | - |
| 1777714654 | 25.56° C | 23% | 1025.5 hPa | - | - | - | - |
| 1777714052 | 25.56° C | 23% | 1025.6 hPa | - | - | - | - |
| 1777713451 | 25° C | 24% | 1025.5 hPa | - | - | - | - |
| 1777712852 | 25° C | 24% | 1025.6 hPa | - | - | - | - |
| 1777712251 | 24.44° C | 24% | 1025.7 hPa | - | - | - | - |
| 1777711652 | 23.89° C | 23% | 1025.8 hPa | - | - | - | - |
| 1777711051 | 23.89° C | 24% | 1025.8 hPa | - | - | - | - |
| 1777710452 | 24.44° C | 25% | 1025.9 hPa | - | - | - | - |
| 1777709852 | 23.89° C | 25% | 1025.9 hPa | - | - | - | - |
| 1777709252 | 23.89° C | 25% | 1025.9 hPa | - | - | - | - |
* Rain since midnight (hover to see other rain measurements)
** Current wind speed in m/s (hover to see current wind gust speed)